Location: Township of Marena
(38.1747°N, 99.6798°W)
Time: 03:16:34
(UTC+00:00)

Cosmos 1626 - Pass Details

Date: 26 October 2020
Orbit: 491 x 494 km, 82.5° (Epoch: 24 November)

Event Time Altitude Azimuth Distance (km) Brightness Sun altitude
Rises 10:34:54 0° 159° (SSE) 2,558 5.9 -28.9°
Reaches altitude 10° 10:37:15 10° 146° (SE) 1,681 5.1 -28.4°
Maximum altitude 10:40:16 24° 90° (E) 1,043 4.4 -27.8°
Drops below altitude 10° 10:43:19 10° 35° (NE) 1,691 5.3 -27.2°
Sets 10:45:41 0° 21° (NNE) 2,578 6.1 -26.8°
